Regional Weather Roundup
Issued by NWS

Home | Current Version | Previous Version | Graphics & Text | Print | Product List | Glossary On
Versions: 1 2 3 4 5 6 7 8 9 10 11 12 13 14 15 16 17 18 19 20 21 22 23 24 25 26 27 28 29 30 31 32 33 34 35 36 37 38 39 40 41 42 43 44 45 46 47 48 49 50
375
ASUS44 KJAN 220203
RWRMS

MISSISSIPPI HOURLY WEATHER ROUNDUP
NATIONAL WEATHER SERVICE JACKSON MS
800 PM CST FRI NOV 21 2014

NOTE: "FAIR: INDICATES FEW OR NO CLOUDS BELOW 12,000 FEET WITH NO
SIGNIFICANT WEATHER AND/OR OBSTRUCTIONS TO VISIBILITY.

MSZ001>002-007>008-010>013-018>021-025>028-034>036-220300-
NORTHWEST MISSISSIPPI

CITY           SKY/WX    TMP DP  RH WIND       PRES   REMARKS
CLARKSDALE     CLOUDY    55  52  88 E7        30.27S
CLEVELAND      CLOUDY    62  50  66 SE8       30.26S
GREENWOOD      CLOUDY    62  46  55 SE8       30.28R
GREENVILLE     CLOUDY    62  48  60 SE12      30.26R
GRENADA        MOCLDY    54  46  76 CALM      30.31R
OLIVE BRANCH   MOCLDY    50  46  87 CALM      30.29S
OXFORD         MOCLDY    54  45  71 SE6       30.31S
TUNICA         MOCLDY    54  46  76 E8        30.28S
$$

MSZ003>006-009-014>017-022>024-029>033-037>039-220300-
NORTHEAST MISSISSIPPI

CITY           SKY/WX    TMP DP  RH WIND       PRES   REMARKS
COLUMBUS AFB   CLOUDY    54  48  78 SE5       30.31F
CORINTH        CLOUDY    54  37  54 CALM      30.32S
GOLDN TRIANGLE MOCLDY    59  46  63 SE8       30.30S
STARKVILLE     MOCLDY    57  46  67 CALM      30.31R
TUPELO         CLOUDY    57  46  66 SE5       30.31S
$$

MSZ040-058-220300-
CENTRAL MISSISSIPPI

CITY           SKY/WX    TMP DP  RH WIND       PRES   REMARKS
JACKSON INTL   PTCLDY    55  45  68 SE5       30.28R
JACKSON HAWKNS CLEAR     59  45  59 SE6       30.28R
MERIDIAN KEY   CLEAR     48  44  86 CALM      30.31S
MERIDIAN NAS   CLEAR     52  45  77 E3        30.31S
RAYMOND        FAIR      50  45  81 MISG      30.27R
VICKSBURG      PTCLDY    54  47  77 SE5       30.27R
$$

MSZ059>079-220300-
SOUTH MISSISSIPPI

CITY           SKY/WX    TMP DP  RH WIND       PRES   REMARKS
BROOKHAVEN     FAIR      59  45  58 SE7       30.28F
HATTIESBURG    CLEAR     49  45  86 CALM      30.30S
MCCOMB         PTCLDY    58  43  57 CALM      30.28R
NATCHEZ        CLOUDY    61  48  63 S6        30.27R
PINE BELT      CLEAR     52  43  71 E5        30.30S
$$

MSZ080>082-220300-
COASTAL MISSISSIPPI

CITY           SKY/WX    TMP DP  RH WIND       PRES   REMARKS
BAY ST LOUIS   CLEAR     55  46  71 CALM      30.29S
BILOXI         CLEAR     54  49  82 E3        30.29S
PASCAGOULA     CLEAR     43  42  97 CALM      30.30S
GULFPORT       CLEAR     54  49  83 CALM      30.29S
$$



USA.gov is the U.S. government's official web portal to all federal, state and local government web resources and services.